This is the latest recevied weather packets stored in our database for station/object IW9CSJ-13. If no packets are shown the sender has not sent any weather packets the latest 10 day(s).
| Time | Temp. | Humidity | Pressure | Rain* | Wind** | Luminosity | Snow |
|---|---|---|---|---|---|---|---|
| 1777732223 | 15.56° C | 43% | 1018.6 hPa | 0 mm | - | - | - |
| 1777731625 | 15.56° C | 43% | 1018.6 hPa | 0 mm | - | - | - |
| 1777731324 | 16.11° C | 44% | 1018.7 hPa | 0 mm | - | - | - |
| 1777731018 | 16.11° C | 44% | 1018.7 hPa | 0 mm | - | - | - |
| 1777730466 | 16.11° C | 45% | 1018.6 hPa | 0 mm | - | - | - |
| 1777728926 | 16.11° C | 44% | 1018.9 hPa | 0 mm | - | - | - |
| 1777727725 | 16.67° C | 46% | 1018.8 hPa | 0 mm | - | - | - |
| 1777722342 | 16.11° C | 42% | 1018.8 hPa | 0 mm | - | - | - |
| 1777720822 | 17.22° C | 41% | 1018.9 hPa | 0 mm | - | - | - |
| 1777719622 | 16.67° C | 43% | 1018.7 hPa | 0 mm | - | - | - |
| 1777718116 | 16.11° C | 43% | 1019 hPa | 0 mm | - | - | - |
| 1777716344 | 16.11° C | 45% | 1019.1 hPa | 0 mm | - | - | - |
| 1777712420 | 15.56° C | 50% | 1018.8 hPa | 0 mm | - | - | - |
| 1777712124 | 15° C | 50% | 1018.7 hPa | 0 mm | - | - | - |
| 1777709424 | 15.56° C | 53% | 1018.6 hPa | 0 mm | - | - | - |
| 1777707020 | 14.44° C | 55% | 1018.5 hPa | 0 mm | - | - | - |
| 1777706729 | 14.44° C | 54% | 1018.6 hPa | 0 mm | - | - | - |
| 1777705520 | 14.44° C | 55% | 1018.4 hPa | 0 mm | - | - | - |
| 1777702518 | 14.44° C | 53% | 1018.4 hPa | 0 mm | - | - | - |
| 1777701620 | 14.44° C | 53% | 1018.4 hPa | 0 mm | - | - | - |
| 1777699244 | 13.33° C | 53% | 1018.5 hPa | 0 mm | - | - | - |
| 1777698925 | 13.33° C | 55% | 1018.3 hPa | 0 mm | - | - | - |
| 1777695324 | 11.67° C | 51% | 1018.4 hPa | 0 mm | - | - | - |
| 1777693221 | 12.78° C | 43% | 1018.3 hPa | 0 mm | - | - | - |
| 1777692624 | 12.22° C | 43% | 1018.3 hPa | 0 mm | - | - | - |
* Rain latest hour (hover to see other rain measurements)
** Current wind speed in m/s (hover to see current wind gust speed)